map of ZQW home
Great Circle Mapper logo
ZQW - Airport
Location
City:  Zweibrücken, Rhineland-Palatinate, Germany
ICAO / IATA:EDRZ / ZQW

Details
Type:Airport (Flugplatz, Airfield)
Use:Public/Civil
Latitude:49°12'34"N (49.209525)
Longitude:7°24'02"E (7.400647)
Datum:WGS 1984
Elevation:1133 ft (345 m)
Runways:1
Longest:9677 × 148 ft (2950 × 45 m), paved

Time
Time Zone:UTC+1 (DST+2)
Local Time:

Weather
METAR:EDRZ 290820Z VRB03KT 0300 R21/0650N FG VV/// 17/16 Q1010
TAF:EDRZ 290555Z 2906/3006 27004KT 2000 BR BKN002
TEMPO 2906/2907 BKN001
BECMG 2907/2910 4000 BR BKN006
BECMG 2910/2912 8000 SCT008 BKN015
TEMPO 2911/2922 25015G30KT 2500 TSRA BKN010 BKN020CB PROB30
TEMPO 2922/3006 25015G30KT TSRA BKN012CB
TEMPO 3000/3006 3500 BR BKN006

Related Locations
Nearby:
Farthest:CHT: 12016 mi / 19338 km
Waitangi [Tuuta], Chatham Islands, NZ

Find:

   beyond  
but within

Other Information
Maps:
NOTAMs:
Links:
Sources:

  
flag of Germany
flag of Rhineland-Palatinate
  

Sectional Chart

Flight Planning
at skyvector.com

Satellite Image

Google Maps Satellite View

 

Copyright © 2004-2014 Karl L. Swartz. All rights reserved.
The Great Circle Mapper name and logo are trademarks of the Great Circle Mapper.
All other trademarks mentioned herein belong to their respective owners.
Please see credits for attibutions and further copyright information.

  Follow gcmap on Facebook Follow gcmap on Twitter

hCard Microformat

Geo Microformat